Flag for Spain Weather past 2 weeks in Santa Cruz de Tenerife, Canary Islands, Spain

Now
54 °F

Drizzle. Partly sunny.


Feels Like: 49 °F
Forecast: 64 / 68 °F
Wind: 15 mph from Northwest

Location: Tenerife / Los Rodeos

Current Time: Feb 1, 2015 at 10:33:06 AM

Latest Report: Feb 1, 2015 at 10:00 AM


Visibility: 4 mi

Pressure: 30.18 "Hg

Humidity: 100%

Dew point: 54 °F

Location of Santa Cruz de TenerifeLocation

Historic Weather in Santa Cruz de Tenerife — Graph

°F

Santa Cruz de Tenerife temperature yesterday

Maximum temperature yesterday: 55 °F (at 1:30 PM)
Minimum temperature yesterday: 52 °F (at 6:00 AM)
Average temperature yesterday: 53 °F

Past Weeks' High & Low Weather Summary

 TemperatureHumidityPressure
High59 °F (Jan 27, 1:00 PM)100% (Jan 18, 9:30 PM)30.45 "Hg (Jan 18, 9:30 PM)
Low48 °F (Jan 27, 6:00 AM)63% (Jan 17, 1:00 PM)30.15 "Hg (Jan 20, 2:00 PM)
Average53 °F88%30.29 "Hg
* Reported Jan 17 9:00 AM — Feb 1 9:30 AM, Santa Cruz de Tenerife, Weather by CustomWeather, © 2014

Note: Actual official high and low records may vary slightly from our data, if they occured in-between our weather recording intervals... More about our weather records

Advertising

Santa Cruz de Tenerife weather history for previous 24 hours

 ConditionsComfort  
Time TempWeatherWind HumidityBarometerVisibility
9:30 AM
Feb 1
54 °FPartly sunny.10 mph94%30.18 "HgN/A
9:00 AM52 °FDrizzle. Partly sunny.10 mph94%30.18 "Hg5 mi
8:30 AM52 °FPartly sunny.14 mph94%30.18 "HgN/A
8:00 AM52 °FPartly sunny.15 mph88%30.18 "HgN/A
7:30 AM52 °FPassing clouds.15 mph88%30.18 "HgN/A
7:00 AM52 °FPassing clouds.15 mph88%30.15 "HgN/A
6:30 AM52 °FPassing clouds.16 mph94%30.15 "HgN/A
6:00 AM52 °FPassing clouds.18 mph94%30.15 "Hg6 mi
11:00 PM
Jan 31
52 °FPassing clouds.17 mph94%30.21 "HgN/A
10:30 PM52 °FPassing clouds.14 mph94%30.21 "HgN/A
10:00 PM52 °FLow clouds.16 mph100%30.21 "Hg3 mi
9:30 PM52 °FLow clouds.20 mph100%30.18 "Hg3 mi
8:30 PM54 °FLight rain. Fog.21 mph100%30.18 "Hg1 mi
8:00 PM54 °FLight rain. Fog.18 mph100%30.18 "Hg1 mi
7:30 PM54 °FLight rain. Fog.18 mph100%30.15 "Hg1 mi
7:03 PM54 °FLight rain. Fog.18 mph100%30.15 "Hg1 mi
6:30 PM54 °FPartly sunny.21 mph94%30.15 "HgN/A
6:00 PM54 °FPartly sunny.18 mph100%30.15 "HgN/A
5:30 PM54 °FPartly sunny.21 mph100%30.15 "HgN/A
5:00 PM54 °FPartly sunny.22 mph100%30.15 "HgN/A
4:30 PM54 °FPartly sunny.22 mph100%30.15 "Hg5 mi
4:00 PM54 °FCool.21 mph100%30.15 "Hg3 mi
3:30 PM54 °FBroken clouds.21 mph100%30.15 "Hg3 mi
3:00 PM55 °FPartly sunny.18 mph94%30.15 "Hg6 mi
2:30 PM55 °FPartly sunny.20 mph94%30.18 "Hg4 mi
2:00 PM54 °FPartly sunny.23 mph100%30.18 "HgN/A
1:30 PM55 °FFog.23 mph94%30.18 "Hg6 mi
1:00 PM54 °FDrizzle. Partly sunny.22 mph100%30.18 "HgN/A
12:30 PM54 °FDrizzle. Fog.22 mph100%30.21 "HgN/A
12:00 PM54 °FDrizzle. Fog.23 mph100%30.24 "Hg1 mi
11:45 AM54 °FDrizzle. Fog.22 mph100%30.24 "Hg1 mi
11:30 AM54 °FDrizzle. More clouds than sun.21 mph100%30.24 "Hg1 mi
11:00 AM54 °FDrizzle. Fog.21 mph100%30.24 "Hg1 mi
10:30 AM54 °FFog.22 mph100%30.24 "HgN/A
10:00 AM54 °FDrizzle. Partly sunny.22 mph100%30.21 "Hg4 mi
Weather by CustomWeather, © 2014

See weather overviewHow to use our weather pages